timestamp,surface_pressure_avg,surface_temp_avg,battery_voltage,lat,long
2017-10-19 00:00:00+00:00,363.9396,11.5,12.97,47.84626,-54.09684
2017-10-19 00:10:00+00:00,359.6863,11.5,12.89,47.84626,-54.09684
2017-10-19 00:20:00+00:00,351.0479,11.5,12.97,47.84626,-54.09684
2017-10-19 00:30:00+00:00,348.503,11.5,12.97,47.84626,-54.09684
2017-10-19 00:40:00+00:00,346.5063,11.49,12.97,47.84626,-54.09684
2017-10-19 00:50:00+00:00,332.9914,11.5,12.97,47.84626,-54.09684
2017-10-19 01:00:00+00:00,322.048,11.5,12.97,47.84626,-54.09684
2017-10-19 01:10:00+00:00,317.3397,11.47,12.89,47.84626,-54.09684
2017-10-19 01:20:00+00:00,310.6714,11.47,12.97,47.84626,-54.09684
2017-10-19 01:30:00+00:00,295.293,11.49,12.97,47.84626,-54.09684
2017-10-19 01:40:00+00:00,285.0164,11.48,12.97,47.84626,-54.09684
2017-10-19 01:50:00+00:00,281.508,11.4,12.97,47.84626,-54.09684
2017-10-19 02:00:00+00:00,272.593,11.41,12.89,47.84626,-54.09684
2017-10-19 02:10:00+00:00,259.4247,11.42,12.81,47.84626,-54.09684
2017-10-19 02:20:00+00:00,250.773,11.4,12.89,47.84626,-54.09684
2017-10-19 02:30:00+00:00,245.4797,11.4,12.89,47.84626,-54.09684
2017-10-19 02:40:00+00:00,235.0798,11.4,12.97,47.84626,-54.09684
2017-10-19 02:50:00+00:00,223.4181,11.4,12.97,47.84626,-54.09684
2017-10-19 03:00:00+00:00,216.5598,11.4,12.89,47.84626,-54.09684
2017-10-19 03:10:00+00:00,211.6164,11.4,12.81,47.84626,-54.09684
2017-10-19 03:20:00+00:00,201.2998,11.4,12.89,47.84626,-54.09684
2017-10-19 03:30:00+00:00,194.2215,11.4,12.89,47.84626,-54.09684
2017-10-19 03:40:00+00:00,191.6531,11.4,12.89,47.84626,-54.09684
2017-10-19 03:50:00+00:00,184.3731,11.4,12.89,47.84626,-54.09684
2017-10-19 04:00:00+00:00,178.0931,11.39,12.89,47.84626,-54.09684
2017-10-19 04:10:00+00:00,177.8398,11.39,12.81,47.84626,-54.09684
2017-10-19 04:20:00+00:00,178.5698,11.39,12.89,47.84626,-54.09684
2017-10-19 04:30:00+00:00,178.3898,11.38,12.89,47.84626,-54.09684
2017-10-19 04:40:00+00:00,179.1947,11.37,12.89,47.84626,-54.09684
2017-10-19 04:50:00+00:00,179.7165,11.37,12.89,47.84626,-54.09684
2017-10-19 05:00:00+00:00,179.4765,11.37,12.81,47.84626,-54.09684
2017-10-19 05:10:00+00:00,184.8915,11.37,12.73,47.84626,-54.09684
2017-10-19 05:20:00+00:00,192.0931,11.38,12.81,47.84626,-54.09684
2017-10-19 05:30:00+00:00,192.4381,11.39,12.81,47.84626,-54.09684
2017-10-19 05:40:00+00:00,191.0481,11.39,12.89,47.84626,-54.09684
2017-10-19 05:50:00+00:00,198.9898,11.39,12.89,47.84626,-54.09684
2017-10-19 06:00:00+00:00,204.2848,11.39,12.81,47.84626,-54.09684
2017-10-19 06:10:00+00:00,202.1947,11.4,12.73,47.84626,-54.09684
2017-10-19 06:20:00+00:00,207.7331,11.39,12.81,47.84626,-54.09684
2017-10-19 06:30:00+00:00,215.5865,11.38,12.81,47.84626,-54.09684
2017-10-19 06:40:00+00:00,216.6914,11.38,12.89,47.84626,-54.09684
2017-10-19 06:50:00+00:00,218.3864,11.37,12.89,47.84626,-54.09684
2017-10-19 07:00:00+00:00,225.2831,11.33,12.81,47.84626,-54.09684
2017-10-19 07:10:00+00:00,230.0614,11.3,12.73,47.84626,-54.09684
2017-10-19 07:20:00+00:00,231.1165,11.3,12.81,47.84626,-54.09684
2017-10-19 07:30:00+00:00,235.5865,11.3,12.81,47.84626,-54.09684
2017-10-19 07:40:00+00:00,242.6147,11.3,12.81,47.84626,-54.09684
2017-10-19 07:50:00+00:00,244.0531,11.3,12.81,47.84626,-54.09684
2017-10-19 08:00:00+00:00,248.6431,11.3,12.81,47.84626,-54.09684
2017-10-19 08:10:00+00:00,256.638,11.29,12.73,47.84626,-54.09684
2017-10-19 08:20:00+00:00,263.3881,11.29,12.81,47.84626,-54.09684
2017-10-19 08:30:00+00:00,267.7014,11.29,12.81,47.84626,-54.09684
2017-10-19 08:40:00+00:00,275.8014,11.28,12.81,47.84626,-54.09684
2017-10-19 08:50:00+00:00,284.8363,11.28,12.81,47.84626,-54.09684
2017-10-19 09:00:00+00:00,290.9297,11.29,12.81,47.84626,-54.09684
2017-10-19 09:10:00+00:00,295.5613,11.28,12.73,47.84626,-54.09684
2017-10-19 09:20:00+00:00,304.7563,11.26,12.81,47.84626,-54.09684
2017-10-19 09:30:00+00:00,310.5146,11.2,12.81,47.84626,-54.09684
2017-10-19 09:40:00+00:00,317.868,11.19,12.81,47.84626,-54.09684
2017-10-19 09:50:00+00:00,324.9813,11.17,12.81,47.84626,-54.09684
2017-10-19 10:00:00+00:00,333.3896,11.14,12.81,47.84626,-54.09684
2017-10-19 10:10:00+00:00,338.5729,11.11,12.73,47.84626,-54.09684
2017-10-19 10:20:00+00:00,344.9813,11.1,12.97,47.84626,-54.09684
2017-10-19 10:30:00+00:00,348.4547,11.1,13.13,47.84626,-54.09684
2017-10-19 10:40:00+00:00,351.6063,11.1,13.6,47.84626,-54.09684
2017-10-19 10:50:00+00:00,358.583,11.1,14.08,47.84626,-54.09684
2017-10-19 11:00:00+00:00,362.7879,11.1,13.76,47.84626,-54.09684
2017-10-19 11:10:00+00:00,360.1879,11.1,13.6,47.84626,-54.09684
2017-10-19 11:20:00+00:00,359.5096,11.1,13.6,47.84626,-54.09684
2017-10-19 11:30:00+00:00,364.0613,11.1,13.92,47.84626,-54.09684
2017-10-19 11:40:00+00:00,362.6429,11.1,13.53,47.84626,-54.09684
2017-10-19 11:50:00+00:00,355.7847,11.1,13.44,47.84626,-54.09684
2017-10-19 12:00:00+00:00,354.6746,11.1,13.44,47.84626,-54.09684
2017-10-19 12:10:00+00:00,353.1613,11.1,13.6,47.84626,-54.09684
2017-10-19 12:20:00+00:00,346.228,11.1,13.44,47.84626,-54.09684
2017-10-19 12:30:00+00:00,343.5163,11.1,13.44,47.84626,-54.09684
2017-10-19 12:40:00+00:00,345.7629,11.09,13.44,47.84626,-54.09684
2017-10-19 12:50:00+00:00,340.5347,11.1,13.53,47.84626,-54.09684
2017-10-19 13:00:00+00:00,331.3179,11.09,13.53,47.84626,-54.09684
2017-10-19 13:10:00+00:00,328.6046,11.08,14.08,47.84626,-54.09684
2017-10-19 13:20:00+00:00,322.9296,11.1,13.53,47.84626,-54.09684
2017-10-19 13:30:00+00:00,311.1197,11.1,13.44,47.84626,-54.09684
2017-10-19 13:40:00+00:00,300.133,11.1,13.44,47.84626,-54.09684
2017-10-19 13:50:00+00:00,295.5013,11.1,13.53,47.84626,-54.09684
2017-10-19 14:00:00+00:00,284.8997,11.1,13.53,47.84626,-54.09684
2017-10-19 14:10:00+00:00,275.4964,11.1,13.53,47.84626,-54.09684
2017-10-19 14:20:00+00:00,268.8614,11.1,13.44,47.84626,-54.09684
2017-10-19 14:30:00+00:00,261.618,11.16,13.6,47.84626,-54.09684
2017-10-19 14:40:00+00:00,248.4131,11.18,13.53,47.84626,-54.09684
2017-10-19 14:50:00+00:00,238.1198,11.15,13.44,47.84626,-54.09684
2017-10-19 15:00:00+00:00,233.4314,11.2,13.44,47.84626,-54.09684
2017-10-19 15:10:00+00:00,227.4598,11.2,13.6,47.84626,-54.09684
2017-10-19 15:20:00+00:00,215.8281,11.23,13.53,47.84626,-54.09684
2017-10-19 15:30:00+00:00,207.4398,11.22,13.53,47.84626,-54.09684
2017-10-19 15:40:00+00:00,206.5714,11.27,13.53,47.84626,-54.09684
2017-10-19 15:50:00+00:00,200.6915,11.29,13.53,47.84626,-54.09684
2017-10-19 16:00:00+00:00,192.3165,11.27,13.44,47.84626,-54.09684
2017-10-19 16:10:00+00:00,193.8981,11.28,13.6,47.84626,-54.09684
2017-10-19 16:20:00+00:00,194.0031,11.3,13.44,47.84626,-54.09684
2017-10-19 16:30:00+00:00,186.2914,11.3,13.44,47.84626,-54.09684
2017-10-19 16:40:00+00:00,184.9364,11.3,13.44,47.84626,-54.09684
2017-10-19 16:50:00+00:00,189.4848,11.3,13.44,47.84626,-54.09684
2017-10-19 17:00:00+00:00,187.6031,11.35,13.44,47.84626,-54.09684
2017-10-19 17:10:00+00:00,183.5515,11.39,13.6,47.84626,-54.09684
2017-10-19 17:20:00+00:00,184.1014,11.4,13.44,47.84626,-54.09684
2017-10-19 17:30:00+00:00,184.7281,11.4,13.53,47.84626,-54.09684
2017-10-19 17:40:00+00:00,185.1515,11.4,13.6,47.84626,-54.09684
2017-10-19 17:50:00+00:00,186.9382,11.4,13.53,47.84626,-54.09684
2017-10-19 18:00:00+00:00,191.2598,11.4,13.6,47.84626,-54.09684
2017-10-19 18:10:00+00:00,195.4281,11.41,13.76,47.84626,-54.09684
2017-10-19 18:20:00+00:00,196.6331,11.48,13.92,47.84626,-54.09684
2017-10-19 18:30:00+00:00,200.3865,11.5,13.84,47.84626,-54.09684
2017-10-19 18:40:00+00:00,207.2314,11.5,13.84,47.84626,-54.09684
2017-10-19 18:50:00+00:00,208.8331,11.5,13.84,47.84626,-54.09684
2017-10-19 19:00:00+00:00,210.3631,11.5,13.68,47.84626,-54.09684
2017-10-19 19:10:00+00:00,216.8682,11.5,13.53,47.84626,-54.09684
2017-10-19 19:20:00+00:00,223.2015,11.49,13.53,47.84626,-54.09684
2017-10-19 19:30:00+00:00,226.7031,11.49,13.44,47.84626,-54.09684
2017-10-19 19:40:00+00:00,231.9414,11.46,13.44,47.84626,-54.09684
2017-10-19 19:50:00+00:00,239.798,11.46,13.37,47.84626,-54.09684
2017-10-19 20:00:00+00:00,244.2064,11.48,13.29,47.84626,-54.09684
2017-10-19 20:10:00+00:00,249.1431,11.48,13.21,47.84626,-54.09684
2017-10-19 20:20:00+00:00,257.6264,11.48,13.21,47.84626,-54.09684
2017-10-19 20:30:00+00:00,264.7931,11.49,13.21,47.84626,-54.09684
2017-10-19 20:40:00+00:00,267.9397,11.49,13.21,47.84626,-54.09684
2017-10-19 20:50:00+00:00,274.2598,11.49,13.21,47.84626,-54.09684
2017-10-19 21:00:00+00:00,281.3214,11.49,13.13,47.84626,-54.09684
2017-10-19 21:10:00+00:00,288.2646,11.47,13.05,47.84626,-54.09684
2017-10-19 21:20:00+00:00,295.4114,11.45,13.13,47.84626,-54.09684
2017-10-19 21:30:00+00:00,305.098,11.4,13.13,47.84626,-54.09684
2017-10-19 21:40:00+00:00,311.0563,11.4,13.13,47.84626,-54.09684
2017-10-19 21:50:00+00:00,318.3263,11.4,13.13,47.84626,-54.09684
2017-10-19 22:00:00+00:00,325.923,11.4,13.05,47.84626,-54.09684
2017-10-19 22:10:00+00:00,333.3997,11.4,12.97,47.84626,-54.09684
2017-10-19 22:20:00+00:00,341.1163,11.39,13.05,47.84626,-54.09684
2017-10-19 22:30:00+00:00,348.0179,11.38,13.05,47.84626,-54.09684
2017-10-19 22:40:00+00:00,352.8963,11.38,13.05,47.84626,-54.09684
2017-10-19 22:50:00+00:00,353.588,11.35,13.05,47.84626,-54.09684
2017-10-19 23:00:00+00:00,355.8746,11.3,13.05,47.84626,-54.09684
2017-10-19 23:10:00+00:00,358.2096,11.3,12.97,47.84626,-54.09684
2017-10-19 23:20:00+00:00,361.313,11.3,13.05,47.84626,-54.09684
2017-10-19 23:30:00+00:00,363.5297,11.3,13.05,47.84626,-54.09684
2017-10-19 23:40:00+00:00,364.2195,11.3,13.05,47.84626,-54.09684
2017-10-19 23:50:00+00:00,365.5763,11.3,13.05,47.84626,-54.09684
